Weather History for North Wilkesboro, NC

Change the Weather History Date:

Saturday, February 25, 2012

  Actual Average Record
Temperature  
Mean Temperature 40 °F -  
Max Temperature 48 °F 53 °F 78 °F (1982)
Min Temperature 33 °F 28 °F 3 °F (1967)
Degree Days  
Heating Degree Days 24    
Moisture  
Dew Point 16 °F    
Average Humidity 39    
Maximum Humidity 52    
Minimum Humidity 29    
Precipitation  
Precipitation 0.00 in - - ()
Sea Level Pressure  
Sea Level Pressure 30.11 in    
Wind  
Wind Speed 10 mph (West)    
Max Wind Speed 22 mph    
Max Gust Speed 34 mph    
Visibility 10 miles    
Events      
Averages and records for this station are not official NWS values.
T = Trace of Precipitation, MM = Missing Value Source: NWS Daily Summary

Daily Weather History Graph

Daily Weather History Graph

Search for Another Location

Airport:

Trip Planner

Search our weather history database for the weather conditions in past years. The results will help you decide how hot, cold, wet, or windy it might be!

Date:

Astronomy

Feb. 25, 2012 Rise Set
Actual Time 7:00 AM EST 6:14 PM EST
Civil Twilight 6:34 AM EST 6:40 PM EST
Nautical Twilight 6:04 AM EST 7:10 PM EST
Astronomical Twilight 5:35 AM EST 7:40 PM EST
Moon 8:32 AM EST (2/25) 10:04 PM EST (2/25)
Length of Visible Light 12h 06m
Length of Day
11h 14m
Waxing Crescent, 13% of the Moon is Illuminated
Feb 25
Waxing Crescent
Feb 29
First Quarter
Mar 8
Full
Mar 14
Last Quarter
Mar 22
New

Hourly Weather History & Observations

Time (EST) Temp. Windchill Dew Point Humidity Pressure Visibility Wind Dir Wind Speed Gust Speed Precip Events Conditions
12:15 AM 39.2 °F 32.0 °F 17.6 °F 42% 29.94 in 10.0 mi West 11.5 mph 16.1 mph N/A   Mostly Cloudy
12:35 AM 41.0 °F 33.1 °F 17.6 °F 39% 29.94 in 10.0 mi West 15.0 mph 18.4 mph N/A   Mostly Cloudy
12:55 AM 41.0 °F 35.2 °F 17.6 °F 39% 29.95 in 10.0 mi West 9.2 mph 18.4 mph N/A   Overcast
1:15 AM 41.0 °F 33.9 °F 17.6 °F 39% 29.94 in 10.0 mi West 12.7 mph 19.6 mph N/A   Overcast
1:35 AM 41.0 °F 35.8 °F 17.6 °F 39% 29.94 in 10.0 mi West 8.1 mph - N/A   Overcast
1:55 AM 41.0 °F 36.4 °F 17.6 °F 39% 29.95 in 10.0 mi WSW 6.9 mph - N/A   Overcast
2:15 AM 41.0 °F 34.3 °F 17.6 °F 39% 29.96 in 10.0 mi West 11.5 mph 18.4 mph N/A   Overcast
2:35 AM 39.2 °F 31.6 °F 15.8 °F 39% 29.97 in 10.0 mi West 12.7 mph 23.0 mph N/A   Overcast
2:55 AM 39.2 °F 32.5 °F 15.8 °F 39% 29.97 in 10.0 mi West 10.4 mph 18.4 mph N/A   Overcast
3:15 AM 39.2 °F 35.9 °F 15.8 °F 39% 29.97 in 10.0 mi West 4.6 mph 16.1 mph N/A   Overcast
3:35 AM 39.2 °F - 15.8 °F 39% 29.97 in 10.0 mi Calm Calm - N/A   Overcast
4:35 AM 37.4 °F 33.8 °F 15.8 °F 41% 29.98 in 10.0 mi West 4.6 mph - N/A   Clear
4:55 AM 37.4 °F 31.4 °F 17.6 °F 45% 29.99 in 10.0 mi SW 8.1 mph - N/A   Scattered Clouds
5:15 AM 37.4 °F 32.8 °F 17.6 °F 45% 30.00 in 10.0 mi WSW 5.8 mph - N/A   Clear
5:35 AM 37.4 °F 33.8 °F 15.8 °F 41% 30.01 in 10.0 mi West 4.6 mph - N/A   Scattered Clouds
5:55 AM 37.4 °F 31.4 °F 15.8 °F 41% 30.01 in 10.0 mi West 8.1 mph - N/A   Scattered Clouds
6:15 AM 37.4 °F 28.5 °F 14.0 °F 38% 30.02 in 10.0 mi West 15.0 mph 21.9 mph N/A   Scattered Clouds
6:35 AM 37.4 °F 30.3 °F 14.0 °F 38% 30.03 in 10.0 mi West 10.4 mph 21.9 mph N/A   Scattered Clouds
7:15 AM 37.4 °F 28.5 °F 14.0 °F 38% 30.05 in 10.0 mi WSW 15.0 mph 28.8 mph N/A   Scattered Clouds
7:35 AM 37.4 °F 29.3 °F 14.0 °F 38% 30.06 in 10.0 mi WNW 12.7 mph 24.2 mph N/A   Mostly Cloudy
7:55 AM 37.4 °F 30.8 °F 14.0 °F 38% 30.06 in 10.0 mi WNW 9.2 mph - N/A   Mostly Cloudy
8:15 AM 39.2 °F 33.6 °F 14.0 °F 36% 30.06 in 10.0 mi West 8.1 mph 21.9 mph N/A   Scattered Clouds
8:35 AM 39.2 °F 32.0 °F 14.0 °F 36% 30.07 in 10.0 mi West 11.5 mph 20.7 mph N/A   Mostly Cloudy
8:55 AM 39.2 °F 31.6 °F 15.8 °F 39% 30.07 in 10.0 mi West 12.7 mph 23.0 mph N/A   Scattered Clouds
9:15 AM 41.0 °F 33.5 °F 15.8 °F 36% 30.08 in 10.0 mi West 13.8 mph 20.7 mph N/A   Scattered Clouds
9:35 AM 41.0 °F 33.1 °F 15.8 °F 36% 30.08 in 10.0 mi West 15.0 mph 34.5 mph N/A   Scattered Clouds
9:55 AM 42.8 °F 36.6 °F 15.8 °F 34% 30.08 in 10.0 mi West 11.5 mph 19.6 mph N/A   Scattered Clouds
10:15 AM 42.8 °F 35.4 °F 15.8 °F 34% 30.08 in 10.0 mi WSW 15.0 mph 20.7 mph N/A   Mostly Cloudy
10:35 AM 42.8 °F 34.8 °F 15.8 °F 34% 30.08 in 10.0 mi WNW 17.3 mph 21.9 mph N/A   Mostly Cloudy
10:55 AM 44.6 °F 36.9 °F 17.6 °F 34% 30.09 in 10.0 mi West 18.4 mph 26.5 mph N/A   Mostly Cloudy
11:15 AM 44.6 °F 36.1 °F 17.6 °F 34% 30.09 in 10.0 mi WSW 21.9 mph 34.5 mph N/A   Mostly Cloudy
11:35 AM 44.6 °F 38.8 °F 17.6 °F 34% 30.08 in 10.0 mi WSW 11.5 mph 23.0 mph N/A   Mostly Cloudy
11:55 AM 46.4 °F 40.7 °F 17.6 °F 32% 30.09 in 10.0 mi West 12.7 mph 25.3 mph N/A   Mostly Cloudy
12:15 PM 44.6 °F 38.1 °F 17.6 °F 34% 30.09 in 10.0 mi WSW 13.8 mph 28.8 mph N/A   Mostly Cloudy
12:35 PM 44.6 °F 37.4 °F 17.6 °F 34% 30.08 in 10.0 mi West 16.1 mph 28.8 mph N/A   Scattered Clouds
12:55 PM 44.6 °F 39.2 °F 17.6 °F 34% 30.07 in 10.0 mi West 10.4 mph 25.3 mph N/A   Scattered Clouds
1:55 PM 44.6 °F 37.8 °F 15.8 °F 31% 30.07 in 10.0 mi WNW 15.0 mph 24.2 mph N/A   Mostly Cloudy
2:15 PM 46.4 °F 40.4 °F 17.6 °F 32% 30.08 in 10.0 mi West 13.8 mph 21.9 mph N/A   Mostly Cloudy
2:35 PM 48.2 °F - 17.6 °F 30% 30.09 in 10.0 mi West 12.7 mph 24.2 mph N/A   Mostly Cloudy
2:55 PM 48.2 °F - 17.6 °F 30% 30.09 in 10.0 mi WSW 13.8 mph 31.1 mph N/A   Mostly Cloudy
3:15 PM 46.4 °F 38.7 °F 17.6 °F 32% 30.10 in 10.0 mi WSW 20.7 mph 33.4 mph N/A   Scattered Clouds
3:35 PM 44.6 °F 38.1 °F 15.8 °F 31% 30.11 in 10.0 mi WNW 13.8 mph 33.4 mph N/A   Scattered Clouds
3:55 PM 44.6 °F 37.8 °F 15.8 °F 31% 30.11 in 10.0 mi WNW 15.0 mph 24.2 mph N/A   Scattered Clouds
4:35 PM 46.4 °F 41.5 °F 15.8 °F 29% 30.13 in 10.0 mi West 10.4 mph 21.9 mph N/A   Clear
5:15 PM 44.6 °F 39.7 °F 15.8 °F 31% 30.16 in 10.0 mi WNW 9.2 mph 24.2 mph N/A   Mostly Cloudy
5:35 PM 42.8 °F 35.8 °F 15.8 °F 34% 30.17 in 10.0 mi NW 13.8 mph 20.7 mph N/A   Scattered Clouds
5:55 PM 42.8 °F 37.0 °F 14.0 °F 31% 30.18 in 10.0 mi WNW 10.4 mph 21.9 mph N/A   Clear
6:15 PM 41.0 °F 35.8 °F 15.8 °F 36% 30.21 in 10.0 mi NW 8.1 mph 18.4 mph N/A   Clear
6:55 PM 39.2 °F 33.6 °F 17.6 °F 42% 30.24 in 10.0 mi NNW 8.1 mph - N/A   Clear
7:15 PM 39.2 °F 34.2 °F 17.6 °F 42% 30.25 in 10.0 mi NW 6.9 mph - N/A   Clear
7:35 PM 37.4 °F 32.1 °F 17.6 °F 45% 30.26 in 10.0 mi NNW 6.9 mph - N/A   Clear
7:55 PM 35.6 °F 30.7 °F 17.6 °F 48% 30.27 in 10.0 mi North 5.8 mph - N/A   Clear
8:35 PM 37.4 °F 30.8 °F 17.6 °F 45% 30.28 in 10.0 mi NNW 9.2 mph - N/A   Clear
8:55 PM 37.4 °F 32.8 °F 17.6 °F 45% 30.29 in 10.0 mi NW 5.8 mph - N/A   Clear
9:15 PM 35.6 °F 30.7 °F 17.6 °F 48% 30.29 in 10.0 mi NW 5.8 mph - N/A   Clear
9:35 PM 35.6 °F 29.2 °F 15.8 °F 44% 30.29 in 10.0 mi NW 8.1 mph - N/A   Clear
9:55 PM 35.6 °F - 15.8 °F 44% 30.31 in 10.0 mi Calm Calm - N/A   Clear
10:15 PM 33.8 °F - 15.8 °F 48% 30.31 in 10.0 mi Calm Calm - N/A   Clear
10:35 PM 33.8 °F - 17.6 °F 52% 30.32 in 10.0 mi Calm Calm - N/A   Clear
10:55 PM 33.8 °F - 15.8 °F 48% 30.32 in 10.0 mi Calm Calm - N/A   Clear
11:15 PM 33.8 °F 30.8 °F 15.8 °F 48% 30.32 in 10.0 mi West 3.5 mph - N/A   Clear
11:35 PM 33.8 °F 29.6 °F 15.8 °F 48% 30.32 in 10.0 mi WNW 4.6 mph - N/A   Clear
11:55 PM 33.8 °F 29.6 °F 15.8 °F 48% 30.32 in 10.0 mi WNW 4.6 mph - N/A   Clear